This demonstration page uses our WeatherBlox Daily Observations layout. Learn more.

Left ArrowRight Arrow

36.17497, -115.13722

Hourly Observations for March 2, 2016

Temp ( °F °C ) Dew Point ( °F °C ) Humidity (%) Winds ( mph kmh ) Pressure ( in mb ) Visibility ( mi km ) Precip ( " mm )
12:53 am 00:53 Clear 58 14.4 28 -2.2 32 32 N 7 11 30 1016 10 16.0934 0 0
1:53 am 01:53 Clear 56 13.3 27 -2.8 33 33 NNW 5 7 29.99 1016 10 16.0934 0 0
2:53 am 02:53 Clear 55 12.8 27 -2.8 34 34 NNW 7 11 29.99 1016 10 16.0934 0 0
3:53 am 03:53 Clear 58 14.4 26 -3.3 29 29 N 9 15 29.99 1016 10 16.0934 0 0
4:53 am 04:53 Clear 60 15.6 25 -3.9 26 26 NNW 9 15 30.01 1016 10 16.0934 0 0
5:53 am 05:53 Clear 60 15.6 25 -3.9 26 26 NNW 7 11 30.03 1017 10 16.0934 0 0
6:53 am 06:53 Sunny 58 14.4 26 -3.3 29 29 Calm 30.06 1018 10 16.0934 0 0
7:53 am 07:53 Sunny 62 16.7 26 -3.3 25 25 Calm 30.08 1019 10 16.0934 0 0
8:53 am 08:53 Sunny 66 18.9 27 -2.8 23 23 Calm 30.09 1019 10 16.0934 0 0
9:53 am 09:53 Sunny 72 22.2 27 -2.8 19 19 Calm 30.09 1019 10 16.0934 0 0
10:53 am 10:53 Sunny 72 22.2 27 -2.8 19 19 Calm 30.09 1019 10 16.0934 0 0
11:53 am 11:53 Sunny 74 23.3 27 -2.8 17 17 VRB 5 7 30.06 1018 10 16.0934 0 0
12:53 pm 12:53 Sunny 78 25.6 27 -2.8 15 15 VRB 5 7 30.03 1017 10 16.0934 0 0
1:53 pm 13:53 Sunny 78 25.6 26 -3.3 15 15 VRB 5 7 30.01 1016 10 16.0934 0 0
2:53 pm 14:53 Sunny 78 25.6 25 -3.9 14 14 SSE 6 9 30 1016 10 16.0934 0 0
3:53 pm 15:53 Sunny 79 26.1 24 -4.4 13 13 SE 6 9 29.98 1015 10 16.0934 0 0
4:53 pm 16:53 Sunny 78 25.6 22 -5.6 12 12 SSE 7 11 29.99 1016 10 16.0934 0 0
5:53 pm 17:53 Clear 76 24.4 24 -4.4 14 14 SE 5 7 30 1016 10 16.0934 0 0
6:53 pm 18:53 Clear 73 22.8 24 -4.4 16 16 Calm 30.03 1017 10 16.0934 0 0
7:53 pm 19:53 Clear 69 20.6 25 -3.9 19 19 NNW 6 9 30.03 1017 10 16.0934 0 0
8:53 pm 20:53 Clear 66 18.9 27 -2.8 23 23 Calm 30.05 1018 10 16.0934 0 0
9:53 pm 21:53 Clear 65 18.3 26 -3.3 23 23 WNW 7 11 30.05 1018 10 16.0934 0 0
10:53 pm 22:53 Clear 61 16.1 25 -3.9 25 25 NW 6 9 30.04 1017 10 16.0934 0 0
11:53 pm 23:53 Clear 59 15 26 -3.3 28 28 Calm 30.04 1017 10 16.0934 0 0

Powered by AerisWeather